This is the latest recevied weather packets stored in our database for station/object SQ6ELQ-11. If no packets are shown the sender has not sent any weather packets the latest 1 day(s).
| Time | Temp. | Humidity | Pressure | Rain* | Wind** | Luminosity | Snow |
|---|---|---|---|---|---|---|---|
| 1836274391 | 16.67° C | 60% | 1022.6 hPa | 0 mm | 0 m/s | - | - |
| 1836274073 | 16.67° C | 60% | 1022.7 hPa | 0 mm | 0 m/s | - | - |
| 1778021715 | 11.67° C | 66% | 1006.6 hPa | 0 mm | 0 m/s | - | - |
| 1778020641 | 12.22° C | 66% | 1006.7 hPa | 0 mm | 0 m/s | - | - |
| 1778019630 | 12.22° C | 66% | 1006.9 hPa | 0 mm | 0 m/s | - | - |
| 1778018531 | 12.22° C | 65% | 1007.1 hPa | 0 mm | 0 m/s | - | - |
| 1778017476 | 12.22° C | 63% | 1007.2 hPa | 0 mm | 0 m/s | - | - |
| 1778016413 | 12.78° C | 63% | 1007.3 hPa | 0 mm | 0 m/s | - | - |
| 1778015421 | 12.78° C | 64% | 1007.4 hPa | 0 mm | 0 m/s | - | - |
| 1778013186 | 13.89° C | 61% | 1007.6 hPa | 0 mm | 0 m/s | - | - |
| 1778012071 | 14.44° C | 59% | 1007.6 hPa | 0 mm | 0 m/s | - | - |
| 1778011081 | 14.44° C | 59% | 1007.6 hPa | 0 mm | 0 m/s | - | - |
| 1778009981 | 15° C | 59% | 1007.5 hPa | 0 mm | 0 m/s | - | - |
| 1778008911 | 15° C | 58% | 1007.6 hPa | 0 mm | 0 m/s | - | - |
| 1778007866 | 15° C | 57% | 1007.7 hPa | 0 mm | 0 m/s | - | - |
| 1778006825 | 15.56° C | 57% | 1007.6 hPa | 0 mm | 0 m/s | - | - |
| 1778005815 | 16.11° C | 54% | 1007.7 hPa | 0 mm | 0 m/s | - | - |
| 1778004796 | 16.67° C | 53% | 1007.7 hPa | 0 mm | 0 m/s | - | - |
| 1778003751 | 16.67° C | 52% | 1007.8 hPa | 0 mm | 0 m/s | - | - |
| 1778002605 | 17.78° C | 52% | 1008 hPa | 0 mm | 0 m/s | - | - |
| 1778001493 | 18.33° C | 50% | 1007.7 hPa | 0 mm | 0 m/s | - | - |
| 1778000361 | 18.89° C | 44% | 1007.5 hPa | 0 mm | 0 m/s | - | - |
| 1777999210 | 21.67° C | 30% | 1007.1 hPa | 0 mm | 0 m/s | - | - |
| 1777998231 | 22.22° C | 30% | 1007.1 hPa | 0 mm | 0 m/s | - | - |
| 1777997150 | 22.78° C | 29% | 1007.2 hPa | 0 mm | 0 m/s | - | - |
* Rain latest hour (hover to see other rain measurements)
** Current wind speed in m/s (hover to see current wind gust speed)